Tampa Macdill AFB, FL

11:04 PM EDT on October 23, 2019 (GMT -0400)
MacDill Air Force Base

Weather History for KMCF - August, 2019

Change the Weather History Date:

Saturday, August 3, 2019

  Actual Average Record
Temperature  
Mean Temperature 82 °F -  
Max Temperature 88 °F 87 °F 94 °F (2012)
Min Temperature 75 °F 73 °F 71 °F (2015)
Cooling Degree Days 16    
Growing Degree Days 32 (Base 50)    
Moisture  
Dew Point 75 °F    
Average Humidity 84    
Maximum Humidity 94    
Minimum Humidity 66    
Precipitation  
Precipitation 0.00 in - - ()
Sea Level Pressure  
Sea Level Pressure 29.95 in    
Wind  
Wind Speed 5 mph (SSE)    
Max Wind Speed 9 mph    
Max Gust Speed -    
Visibility 10 miles    
Events Thunderstorm    
Averages and records for this station are not official NWS values.
T = Trace of Precipitation, MM = Missing Value Source: NWS Daily Summary

Daily Weather History Graph

Daily Weather History Graph

Search for Another Location

Airport or City:

Astronomy

Aug. 03, 2019 Rise Set
Actual Time 6:53 AM EDT 8:18 PM EDT
Civil Twilight 6:28 AM EDT 8:43 PM EDT
Nautical Twilight 5:58 AM EDT 9:13 PM EDT
Astronomical Twilight 5:27 AM EDT 9:44 PM EDT
Moon 9:34 AM EDT (8/3) 10:37 PM EDT (8/3)
Length of Visible Light 14h 14m
Length of Day
13h 24m
Waxing Crescent, 10% of the Moon is Illuminated
Aug 3
Waxing Crescent
Aug 7
First Quarter
Aug 15
Full
Aug 23
Last Quarter
Aug 30
New

Hourly Weather History & Observations

Time (EDT) Temp. Heat Index Dew Point Humidity Pressure Visibility Wind Dir Wind Speed Gust Speed Precip Events Conditions
12:56 AM 75.6 °F - 73.4 °F 93% 29.95 in 10.0 mi SE 4.6 mph - N/A   Clear
1:30 AM 75.2 °F - 73.4 °F 94% 29.95 in 10.0 mi SE 5.8 mph - N/A   Partly Cloudy
1:56 AM 75.9 °F - 73.8 °F 93% 29.94 in 10.0 mi SE 6.9 mph - N/A   Partly Cloudy
2:56 AM 76.5 °F - 73.9 °F 92% 29.93 in 10.0 mi SSE 8.1 mph - N/A   Partly Cloudy
3:56 AM 76.6 °F - 73.8 °F 91% 29.92 in 10.0 mi South 9.2 mph - N/A   Clear
4:02 AM 77.0 °F - 73.4 °F 89% 29.92 in 10.0 mi South 8.1 mph - N/A   Partly Cloudy
4:56 AM 76.6 °F - 73.4 °F 90% 29.92 in 10.0 mi South 6.9 mph - N/A   Clear
5:56 AM 75.4 °F - 73.2 °F 93% 29.93 in 10.0 mi ESE 4.6 mph - N/A   Clear
6:56 AM 75.4 °F - 73.4 °F 94% 29.94 in 10.0 mi ESE 4.6 mph - N/A   Clear
7:21 AM 75.2 °F - 73.4 °F 94% 29.94 in 10.0 mi ESE 3.5 mph - N/A   Mostly Cloudy
7:41 AM 77.0 °F - 73.4 °F 89% 29.95 in 10.0 mi ESE 4.6 mph - N/A   Mostly Cloudy
7:56 AM 76.8 °F - 74.7 °F 93% 29.95 in 10.0 mi East 4.6 mph - N/A   Mostly Cloudy
8:01 AM 77.0 °F - 75.2 °F 94% 29.95 in 10.0 mi SE 4.6 mph - N/A   Mostly Cloudy
8:11 AM 77.0 °F - 75.2 °F 94% 29.95 in 10.0 mi SE 3.5 mph - N/A   Mostly Cloudy
8:26 AM 77.0 °F - 75.2 °F 94% 29.96 in 10.0 mi SE 4.6 mph - N/A   Scattered Clouds
8:41 AM 78.8 °F - 75.2 °F 89% 29.96 in 10.0 mi SE 5.8 mph - N/A   Mostly Cloudy
8:51 AM 78.8 °F - 75.2 °F 89% 29.96 in 10.0 mi SE 6.9 mph - N/A   Mostly Cloudy
8:52 AM 78.8 °F - 75.2 °F 89% 29.96 in 10.0 mi SE 6.9 mph - N/A   Mostly Cloudy
8:56 AM 77.9 °F - 74.3 °F 89% 29.96 in 10.0 mi SSE 5.8 mph - N/A Thunderstorm Mostly Cloudy
9:02 AM 77.0 °F - 73.4 °F 89% 29.96 in 10.0 mi SE 4.6 mph - N/A Thunderstorm Mostly Cloudy
9:56 AM 79.0 °F - 74.7 °F 87% 29.98 in 10.0 mi South 5.8 mph - N/A   Mostly Cloudy
10:56 AM 80.2 °F 85.5 °F 75.2 °F 85% 29.98 in 10.0 mi Calm Calm - N/A   Mostly Cloudy
11:56 AM 82.4 °F 90.3 °F 76.3 °F 82% 29.98 in 10.0 mi South 5.8 mph - N/A   Clear
12:56 PM 85.5 °F 95.4 °F 76.5 °F 74% 29.96 in 10.0 mi West 3.5 mph - N/A   Partly Cloudy
1:56 PM 86.2 °F 96.9 °F 76.5 °F 73% 29.95 in 10.0 mi Calm Calm - N/A   Scattered Clouds
2:56 PM 87.6 °F 98.2 °F 76.1 °F 68% 29.94 in 10.0 mi WSW 8.1 mph - N/A   Mostly Cloudy
3:01 PM 87.8 °F 102.5 °F 78.8 °F 75% 29.94 in 10.0 mi WSW 5.8 mph - N/A   Scattered Clouds
3:56 PM 88.0 °F 99.6 °F 76.5 °F 69% 29.92 in 10.0 mi WSW 5.8 mph - N/A   Clear
4:56 PM 87.4 °F 98.2 °F 76.3 °F 69% 29.92 in 10.0 mi SSW 6.9 mph - N/A   Clear
5:56 PM 87.8 °F 97.6 °F 75.4 °F 66% 29.92 in 10.0 mi SW 8.1 mph - N/A   Clear
6:56 PM 85.8 °F 93.8 °F 74.3 °F 68% 29.92 in 10.0 mi WSW 8.1 mph - N/A   Clear
7:56 PM 85.5 °F 94.6 °F 75.4 °F 72% 29.93 in 10.0 mi NNW 3.5 mph - N/A   Clear
8:16 PM 84.2 °F 92.3 °F 75.2 °F 74% 29.94 in 10.0 mi NNW 3.5 mph - N/A   Mostly Cloudy
8:26 PM 84.2 °F 92.3 °F 75.2 °F 74% 29.93 in 10.0 mi NNW 3.5 mph - N/A   Scattered Clouds
8:56 PM 82.9 °F 89.7 °F 74.5 °F 75% 29.95 in 10.0 mi NNW 3.5 mph - N/A   Clear
9:56 PM 82.6 °F 89.1 °F 74.5 °F 76% 29.96 in 10.0 mi NNW 4.6 mph - N/A   Clear
10:56 PM 80.8 °F 86.5 °F 75.0 °F 83% 29.98 in 10.0 mi NW 3.5 mph - N/A   Clear
11:56 PM 80.2 °F 85.2 °F 74.5 °F 83% 29.99 in 10.0 mi West 3.5 mph - N/A   Clear